This is the latest recevied weather packets stored in our database for station/object XW7RMR. If no packets are shown the sender has not sent any weather packets the latest 10 day(s).
| Time | Temp. | Humidity | Pressure | Rain* | Wind** | Luminosity | Snow |
|---|---|---|---|---|---|---|---|
| 1777431212 | 12.78° C | 60% | 1021.6 hPa | 0 mm | - | 16 W/m² | - |
| 1777430907 | 12.78° C | 59% | 1021.4 hPa | 0 mm | - | 20 W/m² | - |
| 1777430604 | 13.33° C | 59% | 1021.4 hPa | 0 mm | - | 24 W/m² | - |
| 1777430300 | 13.33° C | 58% | 1021.3 hPa | 0 mm | - | 28 W/m² | - |
| 1777430000 | 13.89° C | 57% | 1021.4 hPa | 0 mm | - | 34 W/m² | - |
| 1777429697 | 13.89° C | 56% | 1021.4 hPa | 0 mm | - | 39 W/m² | - |
| 1777429392 | 13.89° C | 55% | 1021.6 hPa | 0 mm | - | 45 W/m² | - |
| 1777429088 | 13.89° C | 54% | 1021.3 hPa | 0 mm | - | 54 W/m² | - |
| 1777428785 | 14.44° C | 53% | 1021.5 hPa | 0 mm | - | 64 W/m² | - |
| 1777428481 | 15° C | 53% | 1021.5 hPa | 0 mm | - | 74 W/m² | - |
| 1777428177 | 15° C | 53% | 1021.3 hPa | 0 mm | - | 87 W/m² | - |
| 1777427872 | 15° C | 52% | 1021.5 hPa | 0 mm | - | 99 W/m² | - |
| 1777427569 | 15° C | 53% | 1021.4 hPa | 0 mm | - | 112 W/m² | - |
| 1777427265 | 15.56° C | 50% | 1021.6 hPa | 0 mm | - | 125 W/m² | - |
| 1777426963 | 16.67° C | 49% | 1021.6 hPa | 0 mm | - | 148 W/m² | - |
| 1777426660 | 16.11° C | 49% | 1021.7 hPa | 0 mm | - | 172 W/m² | - |
| 1777426356 | 15.56° C | 50% | 1021.6 hPa | 0 mm | - | 202 W/m² | - |
| 1777426052 | 15.56° C | 51% | 1021.8 hPa | 0 mm | - | 143 W/m² | - |
| 1777425747 | 15.56° C | 50% | 1021.6 hPa | 0 mm | - | 146 W/m² | - |
| 1777425441 | 15.56° C | 50% | 1021.4 hPa | 0 mm | - | 147 W/m² | - |
| 1777425138 | 15.56° C | 50% | 1021.5 hPa | 0 mm | - | 144 W/m² | - |
| 1777424835 | 15.56° C | 50% | 1021.5 hPa | 0 mm | - | 275 W/m² | - |
| 1777424530 | 15.56° C | 50% | 1021.5 hPa | 0 mm | - | 146 W/m² | - |
| 1777424226 | 15.56° C | 50% | 1021.6 hPa | 0 mm | - | 145 W/m² | - |
| 1777423923 | 15.56° C | 50% | 1021.5 hPa | 0 mm | - | 173 W/m² | - |
* Rain latest hour (hover to see other rain measurements)
** Current wind speed in m/s (hover to see current wind gust speed)